CZ-6A DEB, 54997

Orbit data source: Space-Track

CZ-6A DEB, 54997 is space debris in SSO originally from a launch on Fri, 11 Nov 2022 UTC launched from the Taiyaun Space Center, China (TSC). Debris objects in space refer to the collection of defunct objects orbiting the Earth. Examples of debris include non-operational satellites, rocket bodies, and fragments generated from explosions, collisions, or faulty payload assembly.

Loading next visibility...
Identifier
54997, 2022-151UN
Orbit
SSO
Country
Flag of CNCN / PRC
Related business
Manufacturer
SAST
Mission
Spacecraft
Bus & Motor
Unknown
Mass
Unknown
Launch date (UTC)
2022-11-11 (4 years ago)
Launch vehicle
Unknown
Launch site
Taiyaun Space Center, China (TSC)
Object type
Payload
Rocket body
Debris
Shape & HBR
Unknown shape, 0.1 m
Radar Cross Section
Medium (>0.1 m² and <1 m²)

Expand to show TLE details & history
Last TLE update: 2 days ago

TLE from 2 days ago
0 CZ-6A DEB
1 54997U 22151UN  26171.20135560  .00010267  00000-0  13584-2 0  9993
2 54997  98.6236 252.5677 0074715 218.6423 140.9426 14.78202018190418
Epoch: 2026-06-20T04:49Z
TLE epoch observation values (Epoch: 2026-06-20T04:49:57.123Z)
Latitude
-0.00003°
Longitude
-88.33969°
Altitude
678.853 km
Speed
7.495 km/s
True Right ascension
16h 50m 16s
True Declination
0° 00' 00"
Sunlit
Object was in full shadow at epoch
Visualization orbit readout
Latitude
Unknown
Longitude
Unknown
Altitude
Unknown
Speed
Unknown
Apparent Right ascension
Unknown
Apparent Declination
Unknown
Sunlit
N/A
Visualization observer readout
Local Sidereal Time
21:28:11
Azimuth
Unknown
Elevation
Unknown
Doppler factor
Unknown
Orbital elements
Apogee altitude
684.459 km
Perigee altitude
579.705 km
Semi-major axis
7,010.219 km
Eccentricity
0.00747
Inclination
98.6236°
RAAN
252.5677°
Arg. of periapsis
218.6423°
True anomaly
141.47818°
Mean anomaly
140.9426°
Eccentric anomaly
141.21078°
Mean motion
3.69782 °/min
Orbital period
97.35 mins
BSTAR
0.0013584
Loading maneuver chart data...
Computing Atmospheric mass density...
Loading historical data...
Loading historical data...
Loading historical data...
Loading historical data...
Loading historical data...
Loading historical data...
Loading historical data...

Documentation

Showing up to 5 results
|